Year,Month,Day,Hour,Minute,Value (Times are PST for temperature in C)
2014,08,19,00,00,18.20
2014,08,19,00,01,18.20
2014,08,19,00,02,18.20
2014,08,19,00,03,18.20
2014,08,19,00,04,18.20
2014,08,19,00,05,18.20
2014,08,19,00,06,18.10
2014,08,19,00,07,18.10
2014,08,19,00,08,18.10
2014,08,19,00,09,18.10
2014,08,19,00,10,18.10
2014,08,19,00,11,18.00
2014,08,19,00,12,18.00
2014,08,19,00,13,18.00
2014,08,19,00,14,18.00
2014,08,19,00,15,18.00
2014,08,19,00,16,17.90
2014,08,19,00,17,17.90
2014,08,19,00,18,17.90
2014,08,19,00,19,17.90
2014,08,19,00,20,17.90
2014,08,19,00,21,17.90
2014,08,19,00,22,17.90
2014,08,19,00,23,17.90
2014,08,19,00,24,17.90
2014,08,19,00,25,17.90
2014,08,19,00,26,17.80
2014,08,19,00,27,17.80
2014,08,19,00,28,17.80
2014,08,19,00,29,17.80
2014,08,19,00,30,17.80
2014,08,19,00,31,17.80
2014,08,19,00,32,17.80
2014,08,19,00,33,17.80
2014,08,19,00,34,17.80
2014,08,19,00,35,17.80
2014,08,19,00,36,17.80
2014,08,19,00,37,17.80
2014,08,19,00,38,17.90
2014,08,19,00,39,17.90
2014,08,19,00,40,17.90
2014,08,19,00,41,17.90
2014,08,19,00,42,18.00
2014,08,19,00,43,18.00
2014,08,19,00,44,18.00
2014,08,19,00,45,18.00
2014,08,19,00,46,18.00
2014,08,19,00,47,18.10
2014,08,19,00,48,18.10
2014,08,19,00,49,18.10
2014,08,19,00,50,18.10
2014,08,19,00,51,18.10
2014,08,19,00,52,18.10
2014,08,19,00,53,18.00
2014,08,19,00,54,18.00
2014,08,19,00,55,18.00
2014,08,19,00,56,18.00
2014,08,19,00,57,18.00
2014,08,19,00,58,18.00
2014,08,19,00,59,18.00
2014,08,19,01,00,18.00
2014,08,19,01,01,18.00
2014,08,19,01,02,18.00
2014,08,19,01,03,18.00
2014,08,19,01,04,18.00
2014,08,19,01,05,18.00
2014,08,19,01,06,18.00
2014,08,19,01,07,18.00
2014,08,19,01,08,18.00
2014,08,19,01,09,18.00
2014,08,19,01,10,18.00
2014,08,19,01,11,18.00
2014,08,19,01,12,18.00
2014,08,19,01,13,18.00
2014,08,19,01,14,18.00
2014,08,19,01,15,17.90
2014,08,19,01,16,17.90
2014,08,19,01,17,17.90
2014,08,19,01,18,17.90
2014,08,19,01,19,17.90
2014,08,19,01,20,17.90
2014,08,19,01,21,17.80
2014,08,19,01,22,17.80
2014,08,19,01,23,17.80
2014,08,19,01,24,17.80
2014,08,19,01,25,17.80
2014,08,19,01,26,17.80
2014,08,19,01,27,17.80
2014,08,19,01,28,17.80
2014,08,19,01,29,17.80
2014,08,19,01,30,17.70
2014,08,19,01,31,17.70
2014,08,19,01,32,17.70
2014,08,19,01,33,17.70
2014,08,19,01,34,17.70
2014,08,19,01,35,17.70
2014,08,19,01,36,17.70
2014,08,19,01,37,17.70
2014,08,19,01,38,17.70
2014,08,19,01,39,17.70
2014,08,19,01,40,17.70
2014,08,19,01,41,17.70
2014,08,19,01,42,17.70
2014,08,19,01,43,17.70
2014,08,19,01,44,17.70
2014,08,19,01,45,17.70
2014,08,19,01,46,17.70
2014,08,19,01,47,17.70
2014,08,19,01,48,17.70
2014,08,19,01,49,17.70
2014,08,19,01,50,17.70
2014,08,19,01,51,17.70
2014,08,19,01,52,17.70
2014,08,19,01,53,17.70
2014,08,19,01,54,17.60
2014,08,19,01,55,17.60
2014,08,19,01,56,17.60
2014,08,19,01,57,17.60
2014,08,19,01,58,17.60
2014,08,19,01,59,17.60
2014,08,19,02,00,17.60
2014,08,19,02,01,17.60
2014,08,19,02,02,17.60
2014,08,19,02,03,17.60
2014,08,19,02,04,17.60
2014,08,19,02,05,17.60
2014,08,19,02,06,17.60
2014,08,19,02,07,17.60
2014,08,19,02,08,17.60
2014,08,19,02,09,17.60
2014,08,19,02,10,17.50
2014,08,19,02,11,17.50
2014,08,19,02,12,17.50
2014,08,19,02,13,17.50
2014,08,19,02,14,17.50
2014,08,19,02,15,17.50
2014,08,19,02,16,17.40
2014,08,19,02,17,17.40
2014,08,19,02,18,17.40
2014,08,19,02,19,17.40
2014,08,19,02,20,17.40
2014,08,19,02,21,17.40
2014,08,19,02,22,17.30
2014,08,19,02,23,17.30
2014,08,19,02,24,17.30
2014,08,19,02,25,17.30
2014,08,19,02,26,17.20
2014,08,19,02,27,17.20
2014,08,19,02,28,17.20
2014,08,19,02,29,17.20
2014,08,19,02,30,17.10
2014,08,19,02,31,17.10
2014,08,19,02,32,17.10
2014,08,19,02,33,17.10
2014,08,19,02,34,17.10
2014,08,19,02,35,17.00
2014,08,19,02,36,17.00
2014,08,19,02,37,17.00
2014,08,19,02,38,16.90
2014,08,19,02,39,16.90
2014,08,19,02,40,16.90
2014,08,19,02,41,16.80
2014,08,19,02,42,16.80
2014,08,19,02,43,16.80
2014,08,19,02,44,16.80
2014,08,19,02,45,16.80
2014,08,19,02,46,16.80
2014,08,19,02,47,16.80
2014,08,19,02,48,16.70
2014,08,19,02,49,16.70
2014,08,19,02,50,16.70
2014,08,19,02,51,16.70
2014,08,19,02,52,16.70
2014,08,19,02,53,16.70
2014,08,19,02,54,16.70
2014,08,19,02,55,16.70
2014,08,19,02,56,16.70
2014,08,19,02,57,16.60
2014,08,19,02,58,16.60
2014,08,19,02,59,16.60
2014,08,19,03,00,16.60
2014,08,19,03,01,16.60
2014,08,19,03,02,16.60
2014,08,19,03,06,16.60
2014,08,19,03,07,16.60
2014,08,19,03,08,16.60
2014,08,19,03,09,16.60
2014,08,19,03,10,16.60
2014,08,19,03,11,16.60
2014,08,19,03,12,16.60
2014,08,19,03,13,16.60
2014,08,19,03,14,16.60
2014,08,19,03,15,16.60
2014,08,19,03,16,16.60
2014,08,19,03,17,16.60
2014,08,19,03,18,16.60
2014,08,19,03,19,16.60
2014,08,19,03,20,16.60
2014,08,19,03,21,16.60
2014,08,19,03,22,16.60
2014,08,19,03,23,16.60
2014,08,19,03,24,16.60
2014,08,19,03,25,16.70
2014,08,19,03,26,16.70
2014,08,19,03,27,16.70
2014,08,19,03,28,16.70
2014,08,19,03,29,16.70
2014,08,19,03,30,16.70
2014,08,19,03,31,16.70
2014,08,19,03,32,16.70
2014,08,19,03,33,16.70
2014,08,19,03,34,16.70
2014,08,19,03,35,16.70
2014,08,19,03,36,16.70
2014,08,19,03,37,16.70
2014,08,19,03,38,16.70
2014,08,19,03,39,16.80
2014,08,19,03,40,16.80
2014,08,19,03,41,16.80
2014,08,19,03,42,16.80
2014,08,19,03,43,16.80
2014,08,19,03,44,16.80
2014,08,19,03,45,16.80
2014,08,19,03,46,16.90
2014,08,19,03,47,16.90
2014,08,19,03,48,16.90
2014,08,19,03,49,16.90
2014,08,19,03,50,16.90
2014,08,19,03,51,16.90
2014,08,19,03,52,16.80
2014,08,19,03,53,16.80
2014,08,19,03,54,16.80
2014,08,19,03,55,16.80
2014,08,19,03,56,16.80
2014,08,19,03,57,16.80
2014,08,19,03,58,16.80
2014,08,19,03,59,16.80
2014,08,19,04,00,16.80
2014,08,19,04,01,16.80
2014,08,19,04,02,16.80
2014,08,19,04,03,16.80
2014,08,19,04,04,16.80
2014,08,19,04,05,16.80
2014,08,19,04,06,16.80
2014,08,19,04,07,16.80
2014,08,19,04,08,16.70
2014,08,19,04,09,16.70
2014,08,19,04,10,16.70
2014,08,19,04,11,16.70
2014,08,19,04,12,16.70
2014,08,19,04,13,16.60
2014,08,19,04,14,16.60
2014,08,19,04,15,16.60
2014,08,19,04,16,16.60
2014,08,19,04,17,16.60
2014,08,19,04,18,16.60
2014,08,19,04,19,16.50
2014,08,19,04,20,16.50
2014,08,19,04,21,16.50
2014,08,19,04,22,16.50
2014,08,19,04,23,16.40
2014,08,19,04,24,16.40
2014,08,19,04,25,16.40
2014,08,19,04,26,16.40
2014,08,19,04,27,16.30
2014,08,19,04,28,16.30
2014,08,19,04,29,16.30
2014,08,19,04,30,16.30
2014,08,19,04,31,16.20
2014,08,19,04,32,16.20
2014,08,19,04,33,16.20
2014,08,19,04,34,16.10
2014,08,19,04,35,16.10
2014,08,19,04,36,16.10
2014,08,19,04,37,16.00
2014,08,19,04,38,16.00
2014,08,19,04,39,16.00
2014,08,19,04,40,16.00
2014,08,19,04,41,15.90
2014,08,19,04,42,15.90
2014,08,19,04,43,15.90
2014,08,19,04,44,15.90
2014,08,19,04,45,15.80
2014,08,19,04,46,15.80
2014,08,19,04,47,15.80
2014,08,19,04,48,15.80
2014,08,19,04,49,15.80
2014,08,19,04,50,15.80
2014,08,19,04,51,15.80
2014,08,19,04,52,15.80
2014,08,19,04,53,15.80
2014,08,19,04,54,15.80
2014,08,19,04,55,15.80
2014,08,19,04,56,15.70
2014,08,19,04,57,15.70
2014,08,19,04,58,15.70
2014,08,19,04,59,15.70
2014,08,19,05,00,15.70
2014,08,19,05,01,15.70
2014,08,19,05,02,15.60
2014,08,19,05,03,15.60
2014,08,19,05,04,15.60
2014,08,19,05,05,15.60
2014,08,19,05,06,15.60
2014,08,19,05,07,15.60
2014,08,19,05,08,15.60
2014,08,19,05,09,15.60
2014,08,19,05,10,15.60
2014,08,19,05,11,15.60
2014,08,19,05,12,15.50
2014,08,19,05,13,15.50
2014,08,19,05,14,15.50
2014,08,19,05,15,15.50
2014,08,19,05,16,15.50
2014,08,19,05,17,15.50
2014,08,19,05,18,15.50
2014,08,19,05,19,15.50
2014,08,19,05,20,15.60
2014,08,19,05,21,15.60
2014,08,19,05,22,15.60
2014,08,19,05,23,15.60
2014,08,19,05,24,15.60
2014,08,19,05,25,15.60
2014,08,19,05,26,15.60
2014,08,19,05,27,15.60
2014,08,19,05,28,15.60
2014,08,19,05,29,15.60
2014,08,19,05,30,15.60
2014,08,19,05,31,15.60
2014,08,19,05,32,15.60
2014,08,19,05,33,15.60
2014,08,19,05,34,15.50
2014,08,19,05,35,15.50
2014,08,19,05,36,15.50
2014,08,19,05,37,15.50
2014,08,19,05,38,15.50
2014,08,19,05,39,15.50
2014,08,19,05,40,15.50
2014,08,19,05,41,15.40
2014,08,19,05,42,15.40
2014,08,19,05,43,15.40
2014,08,19,05,44,15.40
2014,08,19,05,45,15.40
2014,08,19,05,46,15.30
2014,08,19,05,47,15.30
2014,08,19,05,48,15.30
2014,08,19,05,49,15.30
2014,08,19,05,50,15.30
2014,08,19,05,51,15.20
2014,08,19,05,52,15.20
2014,08,19,05,53,15.20
2014,08,19,05,54,15.20
2014,08,19,05,55,15.20
2014,08,19,05,56,15.20
2014,08,19,05,57,15.20
2014,08,19,05,58,15.20
2014,08,19,05,59,15.20
2014,08,19,06,00,15.20
2014,08,19,06,01,15.20
2014,08,19,06,02,15.20
2014,08,19,06,03,15.20
2014,08,19,06,04,15.10
2014,08,19,06,05,15.10
2014,08,19,06,06,15.10
2014,08,19,06,07,15.10
2014,08,19,06,08,15.10
2014,08,19,06,09,15.10
2014,08,19,06,10,15.10
2014,08,19,06,11,15.10
2014,08,19,06,12,15.10
2014,08,19,06,13,15.10
2014,08,19,06,14,15.10
2014,08,19,06,15,15.10
2014,08,19,06,16,15.10
2014,08,19,06,17,15.10
2014,08,19,06,18,15.00
2014,08,19,06,19,15.10
2014,08,19,06,20,15.00
2014,08,19,06,21,15.00
2014,08,19,06,22,15.00
2014,08,19,06,23,15.00
2014,08,19,06,24,15.00
2014,08,19,06,25,15.00
2014,08,19,06,26,15.00
2014,08,19,06,27,15.00
2014,08,19,06,28,15.00
2014,08,19,06,29,15.00
2014,08,19,06,30,15.00
2014,08,19,06,31,14.90
2014,08,19,06,32,14.90
2014,08,19,06,33,14.90
2014,08,19,06,34,14.90
2014,08,19,06,35,14.90
2014,08,19,06,36,14.90
2014,08,19,06,37,14.80
2014,08,19,06,38,14.80
2014,08,19,06,39,14.80
2014,08,19,06,40,14.80
2014,08,19,06,41,14.80
2014,08,19,06,42,14.80
2014,08,19,06,43,14.80
2014,08,19,06,44,14.80
2014,08,19,06,45,14.80
2014,08,19,06,46,14.70
2014,08,19,06,47,14.70
2014,08,19,06,48,14.70
2014,08,19,06,49,14.70
2014,08,19,06,50,14.70
2014,08,19,06,51,14.70
2014,08,19,06,52,14.70
2014,08,19,06,53,14.70
2014,08,19,06,54,14.70
2014,08,19,06,55,14.70
2014,08,19,06,56,14.70
2014,08,19,06,57,14.60
2014,08,19,06,58,14.60
2014,08,19,06,59,14.60
2014,08,19,07,00,14.60
2014,08,19,07,01,14.60
2014,08,19,07,02,14.60
2014,08,19,07,03,14.60
2014,08,19,07,04,14.60
2014,08,19,07,05,14.60
2014,08,19,07,06,14.60
2014,08,19,07,07,14.60
2014,08,19,07,08,14.60
2014,08,19,07,09,14.60
2014,08,19,07,10,14.60
2014,08,19,07,11,14.50
2014,08,19,07,12,14.50
2014,08,19,07,13,14.50
2014,08,19,07,14,14.50
2014,08,19,07,15,14.50
2014,08,19,07,16,14.50
2014,08,19,07,17,14.50
2014,08,19,07,18,14.50
2014,08,19,07,19,14.50
2014,08,19,07,20,14.50
2014,08,19,07,21,14.50
2014,08,19,07,22,14.50
2014,08,19,07,23,14.50
2014,08,19,07,24,14.50
2014,08,19,07,25,14.50
2014,08,19,07,26,14.50
2014,08,19,07,27,14.60
2014,08,19,07,28,14.60
2014,08,19,07,29,14.60
2014,08,19,07,30,14.60
2014,08,19,07,31,14.60
2014,08,19,07,32,14.60
2014,08,19,07,33,14.70
2014,08,19,07,34,14.70
2014,08,19,07,35,14.70
2014,08,19,07,36,14.70
2014,08,19,07,37,14.70
2014,08,19,07,38,14.70
2014,08,19,07,39,14.70
2014,08,19,07,40,14.80
2014,08,19,07,41,14.80
2014,08,19,07,42,14.80
2014,08,19,07,43,14.80
2014,08,19,07,44,14.80
2014,08,19,07,45,14.90
2014,08,19,07,46,14.90
2014,08,19,07,47,14.90
2014,08,19,07,48,15.00
2014,08,19,07,49,15.00
2014,08,19,07,50,15.10
2014,08,19,07,51,15.10
2014,08,19,07,52,15.20
2014,08,19,07,53,15.20
2014,08,19,07,54,15.30
2014,08,19,07,55,15.30
2014,08,19,07,56,15.30
2014,08,19,07,57,15.40
2014,08,19,07,58,15.40
2014,08,19,07,59,15.50
2014,08,19,08,00,15.60
2014,08,19,08,01,15.60
2014,08,19,08,02,15.70
2014,08,19,08,03,15.70
2014,08,19,08,04,15.80
2014,08,19,08,05,15.80
2014,08,19,08,06,15.90
2014,08,19,08,07,15.90
2014,08,19,08,08,16.00
2014,08,19,08,09,16.10
2014,08,19,08,10,16.10
2014,08,19,08,11,16.20
2014,08,19,08,12,16.20
2014,08,19,08,13,16.20
2014,08,19,08,14,16.20
2014,08,19,08,15,16.30
2014,08,19,08,16,16.30
2014,08,19,08,17,16.30
2014,08,19,08,18,16.30
2014,08,19,08,19,16.30
2014,08,19,08,20,16.40
2014,08,19,08,21,16.40
2014,08,19,08,22,16.40
2014,08,19,08,23,16.50
2014,08,19,08,24,16.50
2014,08,19,08,25,16.50
2014,08,19,08,26,16.60
2014,08,19,08,27,16.60
2014,08,19,08,28,16.60
2014,08,19,08,29,16.70
2014,08,19,08,30,16.70
2014,08,19,08,31,16.70
2014,08,19,08,32,16.70
2014,08,19,08,33,16.80
2014,08,19,08,34,16.80
2014,08,19,08,35,16.80
2014,08,19,08,36,16.80
2014,08,19,08,37,16.90
2014,08,19,08,38,16.90
2014,08,19,08,39,17.00
2014,08,19,08,40,17.00
2014,08,19,08,41,17.10
2014,08,19,08,42,17.10
2014,08,19,08,43,17.10
2014,08,19,08,44,17.10
2014,08,19,08,45,17.10
2014,08,19,08,46,17.10
2014,08,19,08,47,17.10
2014,08,19,08,48,17.10
2014,08,19,08,49,17.10
2014,08,19,08,50,17.20
2014,08,19,08,51,17.20
2014,08,19,08,52,17.30
2014,08,19,08,53,17.30
2014,08,19,08,54,17.30
2014,08,19,08,55,17.30
2014,08,19,08,56,17.30
2014,08,19,08,57,17.30
2014,08,19,08,58,17.30
2014,08,19,08,59,17.30
2014,08,19,09,00,17.40
2014,08,19,09,01,17.40
2014,08,19,09,02,17.50
2014,08,19,09,03,17.50
2014,08,19,09,04,17.60
2014,08,19,09,05,17.60
2014,08,19,09,06,17.60
2014,08,19,09,07,17.70
2014,08,19,09,08,17.70
2014,08,19,09,09,17.80
2014,08,19,09,10,17.90
2014,08,19,09,11,18.00
2014,08,19,09,12,18.10
2014,08,19,09,13,18.20
2014,08,19,09,14,18.30
2014,08,19,09,15,18.40
2014,08,19,09,16,18.40
2014,08,19,09,17,18.50
2014,08,19,09,18,18.60
2014,08,19,09,19,18.70
2014,08,19,09,20,18.70
2014,08,19,09,21,18.80
2014,08,19,09,22,18.80
2014,08,19,09,23,18.80
2014,08,19,09,24,18.90
2014,08,19,09,25,18.90
2014,08,19,09,26,18.90
2014,08,19,09,27,18.90
2014,08,19,09,28,18.90
2014,08,19,09,29,18.90
2014,08,19,09,30,19.00
2014,08,19,09,31,19.00
2014,08,19,09,32,19.00
2014,08,19,09,33,19.10
2014,08,19,09,34,19.10
2014,08,19,09,35,19.10
2014,08,19,09,36,19.10
2014,08,19,09,37,19.10
2014,08,19,09,38,19.10
2014,08,19,09,39,19.10
2014,08,19,09,40,19.10
2014,08,19,09,41,19.10
2014,08,19,09,42,19.10
2014,08,19,09,43,19.10
2014,08,19,09,44,19.10
2014,08,19,09,45,19.10
2014,08,19,09,46,19.20
2014,08,19,09,47,19.20
2014,08,19,09,48,19.20
2014,08,19,09,49,19.20
2014,08,19,09,50,19.20
2014,08,19,09,51,19.30
2014,08,19,09,52,19.30
2014,08,19,09,53,19.30
2014,08,19,09,54,19.40
2014,08,19,09,55,19.40
2014,08,19,09,56,19.50
2014,08,19,09,57,19.50
2014,08,19,09,58,19.50
2014,08,19,09,59,19.60
2014,08,19,10,00,19.60
2014,08,19,10,01,19.60
2014,08,19,10,02,19.60
2014,08,19,10,03,19.60
2014,08,19,10,04,19.60
2014,08,19,10,05,19.60
2014,08,19,10,06,19.60
2014,08,19,10,07,19.60
2014,08,19,10,08,19.60
2014,08,19,10,09,19.60
2014,08,19,10,10,19.70
2014,08,19,10,11,19.70
2014,08,19,10,12,19.70
2014,08,19,10,13,19.80
2014,08,19,10,14,19.80
2014,08,19,10,15,19.80
2014,08,19,10,16,19.80
2014,08,19,10,17,19.80
2014,08,19,10,18,19.80
2014,08,19,10,19,19.80
2014,08,19,10,20,19.80
2014,08,19,10,21,19.80
2014,08,19,10,22,19.80
2014,08,19,10,23,19.80
2014,08,19,10,24,19.70
2014,08,19,10,25,19.70
2014,08,19,10,26,19.70
2014,08,19,10,27,19.70
2014,08,19,10,28,19.80
2014,08,19,10,29,19.80
2014,08,19,10,30,19.70
2014,08,19,10,31,19.70
2014,08,19,10,32,19.70
2014,08,19,10,33,19.60
2014,08,19,10,34,19.60
2014,08,19,10,35,19.60
2014,08,19,10,36,19.60
2014,08,19,10,37,19.60
2014,08,19,10,38,19.70
2014,08,19,10,39,19.80
2014,08,19,10,40,19.80
2014,08,19,10,41,19.90
2014,08,19,10,42,20.00
2014,08,19,10,43,20.10
2014,08,19,10,44,20.10
2014,08,19,10,45,20.20
2014,08,19,10,46,20.20
2014,08,19,10,47,20.20
2014,08,19,10,48,20.20
2014,08,19,10,49,20.30
2014,08,19,10,50,20.30
2014,08,19,10,51,20.30
2014,08,19,10,52,20.20
2014,08,19,10,53,20.20
2014,08,19,10,54,20.10
2014,08,19,10,55,20.10
2014,08,19,10,56,20.00
2014,08,19,10,57,20.00
2014,08,19,10,58,19.90
2014,08,19,10,59,20.00
2014,08,19,11,00,20.00
2014,08,19,11,01,20.00
2014,08,19,11,02,19.90
2014,08,19,11,03,19.80
2014,08,19,11,04,19.60
2014,08,19,11,05,19.40
2014,08,19,11,06,19.20
2014,08,19,11,07,19.10
2014,08,19,11,08,19.00
2014,08,19,11,09,18.90
2014,08,19,11,10,18.80
2014,08,19,11,11,18.80
2014,08,19,11,12,18.80
2014,08,19,11,13,18.80
2014,08,19,11,14,18.80
2014,08,19,11,15,18.70
2014,08,19,11,16,18.70
2014,08,19,11,17,18.70
2014,08,19,11,18,18.70
2014,08,19,11,19,18.70
2014,08,19,11,20,18.70
2014,08,19,11,21,18.70
2014,08,19,11,22,18.70
2014,08,19,11,23,18.80
2014,08,19,11,24,18.80
2014,08,19,11,25,18.80
2014,08,19,11,26,18.90
2014,08,19,11,27,18.90
2014,08,19,11,28,18.80
2014,08,19,11,29,18.70
2014,08,19,11,30,18.60
2014,08,19,11,31,18.60
2014,08,19,11,32,18.50
2014,08,19,11,33,18.40
2014,08,19,11,34,18.40
2014,08,19,11,35,18.40
2014,08,19,11,36,18.30
2014,08,19,11,37,18.30
2014,08,19,11,38,18.30
2014,08,19,11,39,18.30
2014,08,19,11,40,18.30
2014,08,19,11,41,18.40
2014,08,19,11,42,18.40
2014,08,19,11,43,18.50
2014,08,19,11,44,18.60
2014,08,19,11,45,18.60
2014,08,19,11,46,18.60
2014,08,19,11,47,18.60
2014,08,19,11,48,18.60
2014,08,19,11,49,18.70
2014,08,19,11,50,18.80
2014,08,19,11,51,18.80
2014,08,19,11,52,18.90
2014,08,19,11,53,19.00
2014,08,19,11,54,19.00
2014,08,19,11,55,19.10
2014,08,19,11,56,19.20
2014,08,19,11,57,19.20
2014,08,19,11,58,19.20
2014,08,19,11,59,19.20
2014,08,19,12,00,19.20
2014,08,19,12,01,19.20
2014,08,19,12,02,19.20
2014,08,19,12,03,19.30
2014,08,19,12,04,19.30
2014,08,19,12,05,19.40
2014,08,19,12,06,19.40
2014,08,19,12,07,19.50
2014,08,19,12,08,19.60
2014,08,19,12,09,19.50
2014,08,19,12,10,19.50
2014,08,19,12,11,19.40
2014,08,19,12,12,19.40
2014,08,19,12,13,19.30
2014,08,19,12,14,19.30
2014,08,19,12,15,19.30
2014,08,19,12,16,19.20
2014,08,19,12,17,19.20
2014,08,19,12,18,19.20
2014,08,19,12,19,19.20
2014,08,19,12,20,19.30
2014,08,19,12,21,19.30
2014,08,19,12,22,19.30
2014,08,19,12,23,19.40
2014,08,19,12,24,19.50
2014,08,19,12,25,19.60
2014,08,19,12,26,19.70
2014,08,19,12,27,19.80
2014,08,19,12,28,19.80
2014,08,19,12,29,19.90
2014,08,19,12,30,19.80
2014,08,19,12,31,19.80
2014,08,19,12,32,19.80
2014,08,19,12,33,19.80
2014,08,19,12,34,19.80
2014,08,19,12,35,19.80
2014,08,19,12,36,19.80
2014,08,19,12,37,19.70
2014,08,19,12,38,19.70
2014,08,19,12,39,19.70
2014,08,19,12,40,19.70
2014,08,19,12,41,19.80
2014,08,19,12,42,19.80
2014,08,19,12,43,19.80
2014,08,19,12,44,19.90
2014,08,19,12,45,20.00
2014,08,19,12,46,20.10
2014,08,19,12,47,20.10
2014,08,19,12,48,20.20
2014,08,19,12,49,20.30
2014,08,19,12,50,20.30
2014,08,19,12,51,20.30
2014,08,19,12,52,20.30
2014,08,19,12,53,20.40
2014,08,19,12,54,20.40
2014,08,19,12,55,20.40
2014,08,19,12,56,20.30
2014,08,19,12,57,20.30
2014,08,19,12,58,20.30
2014,08,19,12,59,20.30
2014,08,19,13,00,20.30
2014,08,19,13,01,20.30
2014,08,19,13,02,20.40
2014,08,19,13,03,20.40
2014,08,19,13,04,20.40
2014,08,19,13,05,20.40
2014,08,19,13,06,20.40
2014,08,19,13,07,20.40
2014,08,19,13,08,20.40
2014,08,19,13,09,20.40
2014,08,19,13,10,20.40
2014,08,19,13,11,20.30
2014,08,19,13,12,20.30
2014,08,19,13,13,20.30
2014,08,19,13,14,20.30
2014,08,19,13,15,20.40
2014,08,19,13,16,20.40
2014,08,19,13,17,20.50
2014,08,19,13,18,20.60
2014,08,19,13,19,20.70
2014,08,19,13,20,20.80
2014,08,19,13,21,20.90
2014,08,19,13,22,21.00
2014,08,19,13,23,21.10
2014,08,19,13,24,21.20
2014,08,19,13,25,21.40
2014,08,19,13,26,21.60
2014,08,19,13,27,21.70
2014,08,19,13,28,21.80
2014,08,19,13,29,22.00
2014,08,19,13,30,22.10
2014,08,19,13,31,22.30
2014,08,19,13,32,22.40
2014,08,19,13,33,22.60
2014,08,19,13,34,22.70
2014,08,19,13,35,22.70
2014,08,19,13,36,22.80
2014,08,19,13,37,22.80
2014,08,19,13,38,22.90
2014,08,19,13,39,23.00
2014,08,19,13,40,23.00
2014,08,19,13,41,23.10
2014,08,19,13,42,23.20
2014,08,19,13,43,23.30
2014,08,19,13,44,23.30
2014,08,19,13,45,23.40
2014,08,19,13,46,23.40
2014,08,19,13,47,23.50
2014,08,19,13,48,23.60
2014,08,19,13,49,23.70
2014,08,19,13,50,23.70
2014,08,19,13,51,23.70
2014,08,19,13,52,23.80
2014,08,19,13,53,23.80
2014,08,19,13,54,23.80
2014,08,19,13,55,23.90
2014,08,19,13,56,23.90
2014,08,19,13,57,24.00
2014,08,19,13,58,24.10
2014,08,19,13,59,24.20
2014,08,19,14,00,24.20
2014,08,19,14,01,24.30
2014,08,19,14,02,24.30
2014,08,19,14,03,24.30
2014,08,19,14,04,24.20
2014,08,19,14,05,24.20
2014,08,19,14,06,24.20
2014,08,19,14,07,24.20
2014,08,19,14,08,24.20
2014,08,19,14,09,24.30
2014,08,19,14,10,24.30
2014,08,19,14,11,24.30
2014,08,19,14,12,24.30
2014,08,19,14,13,24.30
2014,08,19,14,14,24.30
2014,08,19,14,15,24.30
2014,08,19,14,16,24.40
2014,08,19,14,17,24.40
2014,08,19,14,18,24.40
2014,08,19,14,19,24.50
2014,08,19,14,20,24.50
2014,08,19,14,21,24.60
2014,08,19,14,22,24.60
2014,08,19,14,23,24.60
2014,08,19,14,24,24.70
2014,08,19,14,25,24.70
2014,08,19,14,26,24.70
2014,08,19,14,27,24.70
2014,08,19,14,28,24.70
2014,08,19,14,29,24.70
2014,08,19,14,30,24.70
2014,08,19,14,31,24.70
2014,08,19,14,32,24.70
2014,08,19,14,33,24.70
2014,08,19,14,34,24.60
2014,08,19,14,35,24.60
2014,08,19,14,36,24.60
2014,08,19,14,37,24.60
2014,08,19,14,38,24.70
2014,08,19,14,39,24.70
2014,08,19,14,40,24.70
2014,08,19,14,41,24.80
2014,08,19,14,42,24.80
2014,08,19,14,43,24.90
2014,08,19,14,44,25.00
2014,08,19,14,45,25.00
2014,08,19,14,46,25.10
2014,08,19,14,47,25.20
2014,08,19,14,48,25.20
2014,08,19,14,49,25.30
2014,08,19,14,50,25.30
2014,08,19,14,51,25.30
2014,08,19,14,52,25.30
2014,08,19,14,53,25.20
2014,08,19,14,54,25.20
2014,08,19,14,55,25.20
2014,08,19,14,56,25.20
2014,08,19,14,57,25.20
2014,08,19,14,58,25.10
2014,08,19,14,59,25.10
2014,08,19,15,00,25.00
2014,08,19,15,01,25.00
2014,08,19,15,02,25.00
2014,08,19,15,03,25.00
2014,08,19,15,04,25.00
2014,08,19,15,05,25.00
2014,08,19,15,06,25.10
2014,08,19,15,07,25.10
2014,08,19,15,08,25.10
2014,08,19,15,09,25.10
2014,08,19,15,10,25.10
2014,08,19,15,11,25.20
2014,08,19,15,12,25.20
2014,08,19,15,13,25.20
2014,08,19,15,14,25.30
2014,08,19,15,15,25.30
2014,08,19,15,16,25.30
2014,08,19,15,17,25.20
2014,08,19,15,18,25.20
2014,08,19,15,19,25.20
2014,08,19,15,20,25.00
2014,08,19,15,21,25.00
2014,08,19,15,22,25.00
2014,08,19,15,23,25.00
2014,08,19,15,24,25.00
2014,08,19,15,25,25.00
2014,08,19,15,26,25.10
2014,08,19,15,27,25.10
2014,08,19,15,28,25.20
2014,08,19,15,29,25.20
2014,08,19,15,30,25.30
2014,08,19,15,31,25.20
2014,08,19,15,32,25.20
2014,08,19,15,33,25.10
2014,08,19,15,34,25.10
2014,08,19,15,35,25.10
2014,08,19,15,36,25.10
2014,08,19,15,37,25.10
2014,08,19,15,38,25.10
2014,08,19,15,39,25.10
2014,08,19,15,40,25.10
2014,08,19,15,41,24.90
2014,08,19,15,42,24.90
2014,08,19,15,43,24.80
2014,08,19,15,44,24.70
2014,08,19,15,45,24.60
2014,08,19,15,46,24.50
2014,08,19,15,47,24.50
2014,08,19,15,48,24.40
2014,08,19,15,49,24.30
2014,08,19,15,50,24.20
2014,08,19,15,51,24.10
2014,08,19,15,52,24.00
2014,08,19,15,53,24.00
2014,08,19,15,54,23.90
2014,08,19,15,55,23.90
2014,08,19,15,56,23.80
2014,08,19,15,57,23.80
2014,08,19,15,58,23.80
2014,08,19,15,59,23.90
2014,08,19,16,00,23.90
2014,08,19,16,01,23.90
2014,08,19,16,02,23.90
2014,08,19,16,03,23.90
2014,08,19,16,04,23.90
2014,08,19,16,05,23.90
2014,08,19,16,06,24.00
2014,08,19,16,07,24.10
2014,08,19,16,08,24.10
2014,08,19,16,09,24.10
2014,08,19,16,10,24.20
2014,08,19,16,11,24.40
2014,08,19,16,12,24.60
2014,08,19,16,13,24.70
2014,08,19,16,14,24.80
2014,08,19,16,15,24.90
2014,08,19,16,16,25.00
2014,08,19,16,17,25.10
2014,08,19,16,18,25.20
2014,08,19,16,19,25.30
2014,08,19,16,20,25.30
2014,08,19,16,21,25.30
2014,08,19,16,22,25.40
2014,08,19,16,23,25.40
2014,08,19,16,24,25.40
2014,08,19,16,25,25.40
2014,08,19,16,26,25.40
2014,08,19,16,27,25.40
2014,08,19,16,28,25.40
2014,08,19,16,29,25.40
2014,08,19,16,30,25.40
2014,08,19,16,31,25.40
2014,08,19,16,32,25.30
2014,08,19,16,33,25.20
2014,08,19,16,34,25.10
2014,08,19,16,35,25.00
2014,08,19,16,36,25.00
2014,08,19,16,37,24.90
2014,08,19,16,38,24.70
2014,08,19,16,39,24.60
2014,08,19,16,40,24.50
2014,08,19,16,41,24.50
2014,08,19,16,42,24.50
2014,08,19,16,43,24.60
2014,08,19,16,44,24.60
2014,08,19,16,45,24.70
2014,08,19,16,46,24.70
2014,08,19,16,47,24.60
2014,08,19,16,48,24.60
2014,08,19,16,49,24.60
2014,08,19,16,50,24.60
2014,08,19,16,51,24.60
2014,08,19,16,52,24.60
2014,08,19,16,53,24.50
2014,08,19,16,54,24.40
2014,08,19,16,55,24.30
2014,08,19,16,56,24.30
2014,08,19,16,57,24.20
2014,08,19,16,58,24.20
2014,08,19,16,59,24.20
2014,08,19,17,00,24.20
2014,08,19,17,01,24.20
2014,08,19,17,02,24.10
2014,08,19,17,03,24.00
2014,08,19,17,04,23.90
2014,08,19,17,05,23.90
2014,08,19,17,06,23.90
2014,08,19,17,07,23.90
2014,08,19,17,08,23.90
2014,08,19,17,09,23.80
2014,08,19,17,10,23.90
2014,08,19,17,11,23.90
2014,08,19,17,12,23.90
2014,08,19,17,13,24.00
2014,08,19,17,14,24.00
2014,08,19,17,15,24.10
2014,08,19,17,16,24.10
2014,08,19,17,17,24.20
2014,08,19,17,18,24.20
2014,08,19,17,19,24.30
2014,08,19,17,20,24.30
2014,08,19,17,21,24.30
2014,08,19,17,22,24.30